Vorticity
2 3 14 2 6 5 3 18 9 9 4 4 8 -2 10 -4 3 2 10 27 7 5 5 5 5 5 4 3 4 4 2 5 4 3 5 4 2 4 3 4 7 5 5 6 8 7 8 8 7
11 16 8 6 10 9 2 7 11 -5 14 12 3 4 9 4 6 -8 29 11 6 5 6 4 4 6 4 4 3 7 6 1 5 4 6 5 4 5 5 6 5 6 8 7 7 8 10 7 5
5 14 1 5 5 10 4 11 3 10 1 6 -0 12 7 6 8 1 23 23 4 6 -0 1 3 3 4 6 7 5 4 3 4 7 4 7 5 5 6 7 5 9 7 8 9 9 7 6 6
1 14 5 2 4 9 19 2 12 10 -2 10 5 3 3 16 11 15 15 9 9 -1 4 7 5 6 5 -1 3 4 6 5 2 7 10 7 8 8 12 7 9 7 7 9 8 6 6 6 4
4 11 15 10 0 9 4 5 -4 8 3 6 5 13 15 14 15 11 5 9 10 7 2 -3 -1 3 3 8 10 6 4 5 7 11 13 15 7 5 -1 9 8 12 8 8 6 6 6 4 3
5 15 19 4 -8 20 5 8 0 3 2 3 8 11 11 16 20 12 8 5 3 8 3 19 9 1 2 5 9 5 3 6 8 9 9 7 18 5 9 8 7 3 8 6 6 7 6 6 8
-0 13 12 10 4 13 10 2 7 3 -6 4 8 14 13 13 26 5 4 10 8 6 1 -4 18 23 9 3 1 0 4 8 11 7 8 9 4 3 7 7 5 8 6 5 9 5 4 6 3
19 38 25 -1 -4 -3 9 6 6 3 -3 8 18 9 12 21 19 11 17 5 6 6 5 9 11 1 9 8 8 7 6 8 9 6 5 9 0 10 8 7 10 7 5 7 6 4 3 2 2
9 20 -0 3 22 8 12 3 -4 0 -1 -3 1 20 13 18 9 11 9 12 10 9 6 5 5 4 9 8 4 10 17 18 4 5 3 5 9 3 10 10 7 6 7 7 5 3 2 -0 0
12 14 21 16 17 -3 6 13 11 1 9 -3 4 7 13 12 8 4 4 4 6 9 10 9 9 7 1 7 14 13 18 13 3 11 2 4 -5 6 13 8 7 7 8 4 2 1 3 -6 6
19 11 -0 20 4 -12 6 7 3 1 -7 6 5 14 17 6 5 5 4 7 16 22 15 11 7 8 10 8 10 14 14 11 12 6 11 -0 9 7 9 8 8 6 4 1 1 4 -2 4 6
11 13 3 13 33 6 13 5 3 9 -11 -0 6 12 13 7 9 8 2 12 16 22 27 18 9 8 5 10 8 11 9 6 4 4 8 -1 9 9 8 8 6 6 6 1 1 2 3 1 9
6 22 17 24 29 -5 2 8 11 14 -6 1 25 18 16 14 0 10 1 7 23 16 29 20 9 8 7 10 10 5 5 3 9 10 6 8 8 8 8 7 6 6 6 3 2 -0 0 -1 0
4 14 17 24 37 -10 6 8 11 4 6 -1 7 12 6 8 5 10 6 2 8 22 26 9 11 2 6 10 8 11 7 3 1 6 4 6 8 7 9 7 7 4 5 3 3 4 6 8 -7
0 10 8 29 -7 1 10 6 6 4 1 9 2 3 11 9 11 5 1 6 1 22 11 12 5 9 8 17 5 5 5 7 5 -1 16 7 8 9 10 7 5 4 5 6 6 7 8 7 8
16 16 4 8 -1 38 -21 5 7 6 0 3 8 4 7 13 3 4 6 3 8 4 14 26 17 26 38 14 16 26 15 -2 10 4 6 6 4 9 7 6 2 -0 1 7 6 5 1 -0 4
2 3 13 18 8 6 1 16 14 2 1 3 4 -3 3 0 -5 18 11 7 9 6 -3 -4 -2 -0 -3 13 -5 16 8 7 11 9 -4 10 4 10 2 4 6 6 12 4 2 -1 -1 0 4
-10 21 7 11 23 4 -0 1 14 14 -6 -4 -1 4 1 4 11 8 6 11 11 6 6 3 2 3 15 4 9 6 3 8 3 6 6 6 -0 10 2 8 7 -3 -0 8 6 2 3 7 4
-3 1 -12 17 16 13 8 10 0 12 12 7 4 11 10 13 4 10 12 5 6 5 8 11 7 8 6 -3 1 10 6 8 8 10 7 4 16 10 5 2 13 0 10 7 9 11 8 3 4
8 5 10 10 12 13 3 12 12 2 -3 1 5 7 7 3 4 9 20 4 3 3 4 19 8 11 9 -0 1 6 -1 4 11 11 7 7 10 5 2 20 4 10 4 2 6 11 7 9 7
25 19 20 6 5 13 -5 15 38 20 8 13 11 -5 -1 1 -2 5 14 3 14 9 11 9 8 5 7 8 8 4 9 7 -9 8 11 1 6 3 5 6 6 6 6 6 9 10 7 6 6
11 1 21 17 7 9 8 -5 1 21 23 19 7 -2 8 12 8 4 4 14 2 18 6 5 8 13 10 8 8 4 15 6 8 16 9 5 5 7 6 3 5 6 6 6 5 5 5 5 8
7 19 18 21 5 5 9 18 -2 -9 18 27 23 11 -5 14 4 2 9 -0 19 4 3 4 7 9 7 8 8 7 11 11 8 2 18 11 7 10 10 8 7 6 6 6 4 5 7 5 9
12 7 21 17 6 19 25 5 4 11 -9 26 25 21 14 9 3 5 3 7 4 10 7 1 6 7 11 11 8 9 10 7 11 15 5 3 6 10 9 6 9 8 8 8 8 6 8 6 7
28 12 9 8 13 -3 2 24 -24 18 12 22 11 17 33 5 17 6 8 5 7 9 10 9 9 6 4 10 12 9 6 8 5 7 11 8 5 8 7 5 9 10 1 8 9 7 7 7 9
4 24 -17 10 7 6 26 4 -8 4 1 15 12 22 16 22 16 14 11 7 5 4 11 10 -0 6 7 8 10 9 8 6 8 5 7 4 11 6 7 8 5 8 13 7 7 8 14 9 8
-1 2 18 6 5 10 6 9 32 15 33 9 9 19 23 14 16 9 14 17 7 8 6 8 -1 18 8 7 8 8 9 7 6 10 8 11 8 12 13 6 8 8 11 6 6 12 19 12 9
0 10 1 2 1 7 14 3 -11 19 17 6 5 7 22 11 18 18 10 5 3 -0 20 8 16 1 8 9 7 8 7 8 9 6 8 9 10 2 6 5 7 9 8 9 3 7 10 15 17
1 31 4 13 4 7 5 2 -0 25 14 5 6 2 11 3 12 4 4 6 7 13 1 -1 -3 13 6 -1 8 6 9 8 9 6 7 8 5 5 3 16 13 4 11 6 5 4 3 5 10
-14 -7 23 -15 4 3 11 2 13 -10 25 3 2 5 4 3 7 6 8 7 4 6 9 11 17 6 10 7 13 -12 4 9 11 9 7 5 8 6 8 7 11 3 0 9 8 4 9 4 5
Height
3162 3161 3160 3161 3166 3162 3163 3164 3163 3164 3165 3164 3165 3166 3167 3167 3168 3171 3168 3169 3171 3174 3176 3178 3179 3181 3183 3186 3188 3190 3191 3193 3195 3196 3198 3199 3199 3200 3201 3201 3201 3204 3204 3204 3205 3205 3206 3206 3207
3162 3161 3161 3161 3164 3163 3165 3164 3164 3165 3165 3165 3166 3166 3167 3167 3167 3167 3168 3167 3172 3174 3177 3179 3180 3182 3184 3186 3187 3190 3191 3193 3195 3196 3197 3199 3200 3201 3202 3202 3203 3205 3205 3206 3207 3208 3208 3209 3209
3161 3161 3162 3162 3162 3163 3165 3165 3166 3165 3166 3166 3166 3166 3166 3166 3166 3166 3167 3169 3172 3175 3177 3179 3180 3182 3184 3186 3188 3189 3191 3192 3193 3195 3197 3198 3200 3201 3202 3202 3203 3207 3207 3207 3208 3209 3209 3211 3213
3162 3162 3164 3164 3163 3163 3163 3164 3167 3167 3167 3166 3165 3165 3164 3163 3164 3165 3167 3170 3172 3175 3176 3178 3180 3182 3185 3187 3187 3189 3190 3192 3194 3194 3196 3198 3199 3200 3202 3204 3206 3207 3206 3208 3209 3210 3212 3214 3216
3163 3162 3161 3162 3162 3163 3162 3164 3167 3167 3167 3166 3165 3163 3161 3161 3162 3164 3167 3170 3172 3175 3177 3177 3179 3180 3185 3186 3186 3189 3190 3192 3194 3194 3197 3198 3200 3201 3203 3206 3207 3207 3209 3209 3211 3213 3214 3215 3217
3163 3161 3158 3160 3161 3161 3162 3165 3166 3166 3167 3166 3164 3162 3161 3160 3161 3164 3166 3169 3171 3173 3175 3176 3176 3173 3182 3184 3186 3187 3190 3192 3194 3195 3197 3198 3200 3203 3206 3207 3207 3208 3210 3212 3214 3214 3216 3219 3219
3162 3158 3157 3158 3160 3161 3163 3165 3166 3167 3168 3166 3164 3162 3162 3161 3161 3163 3166 3168 3171 3173 3174 3176 3176 3175 3176 3180 3183 3187 3189 3191 3194 3195 3197 3200 3202 3205 3206 3207 3209 3211 3212 3213 3215 3216 3219 3220 3221
3160 3157 3156 3158 3160 3162 3164 3165 3166 3168 3167 3167 3165 3163 3162 3163 3163 3164 3166 3168 3170 3172 3173 3175 3174 3171 3173 3177 3181 3184 3185 3190 3193 3195 3198 3200 3202 3205 3208 3210 3212 3212 3214 3215 3217 3218 3220 3222 3222
3161 3160 3158 3158 3158 3161 3161 3164 3167 3168 3168 3167 3166 3165 3164 3164 3164 3165 3167 3169 3170 3171 3171 3173 3176 3177 3177 3180 3182 3183 3186 3184 3192 3195 3199 3202 3205 3208 3209 3212 3214 3215 3216 3217 3218 3219 3223 3223 3224
3160 3160 3160 3160 3159 3160 3162 3164 3165 3168 3169 3168 3168 3166 3165 3166 3166 3167 3168 3169 3169 3168 3169 3170 3174 3178 3179 3181 3182 3184 3187 3188 3192 3197 3200 3204 3208 3210 3212 3213 3215 3216 3217 3219 3220 3222 3224 3225 3226
3158 3158 3157 3159 3157 3160 3162 3163 3165 3167 3169 3169 3168 3166 3166 3167 3167 3168 3169 3168 3166 3165 3166 3168 3172 3176 3179 3181 3183 3186 3188 3192 3195 3199 3202 3206 3209 3212 3214 3215 3216 3218 3219 3220 3222 3224 3226 3227 3227
3159 3157 3155 3154 3155 3158 3161 3162 3164 3168 3169 3169 3168 3167 3167 3168 3168 3169 3170 3167 3165 3163 3163 3167 3172 3175 3179 3181 3185 3187 3191 3194 3198 3201 3205 3208 3210 3213 3215 3216 3218 3220 3222 3222 3224 3226 3227 3228 3227
3159 3156 3154 3153 3153 3157 3161 3161 3163 3166 3169 3169 3169 3168 3168 3169 3169 3170 3170 3168 3165 3164 3165 3168 3172 3176 3180 3182 3185 3188 3191 3195 3199 3203 3206 3209 3211 3213 3215 3217 3219 3221 3223 3223 3225 3227 3228 3228 3228
3160 3157 3156 3155 3155 3158 3160 3161 3163 3166 3168 3169 3169 3169 3169 3169 3170 3170 3171 3170 3169 3167 3168 3170 3173 3178 3181 3184 3187 3190 3193 3197 3201 3204 3207 3209 3212 3214 3217 3219 3221 3222 3223 3225 3226 3228 3229 3228 3228
3160 3159 3158 3157 3158 3160 3161 3162 3163 3165 3167 3169 3169 3169 3169 3169 3170 3171 3171 3172 3172 3172 3172 3173 3177 3179 3183 3185 3188 3191 3195 3199 3202 3204 3207 3210 3213 3214 3217 3219 3221 3222 3223 3225 3227 3229 3229 3229 3229
3161 3160 3159 3159 3158 3159 3160 3160 3164 3165 3166 3168 3169 3170 3170 3170 3171 3172 3172 3173 3175 3175 3176 3176 3179 3181 3185 3189 3191 3194 3196 3200 3203 3206 3208 3211 3213 3215 3216 3218 3220 3222 3224 3225 3228 3229 3229 3229 3229
3162 3161 3160 3160 3160 3161 3162 3161 3163 3165 3166 3168 3169 3169 3170 3170 3172 3173 3172 3173 3176 3178 3179 3181 3182 3184 3187 3191 3193 3194 3196 3200 3203 3207 3209 3211 3213 3215 3216 3219 3220 3222 3223 3225 3227 3228 3228 3229 3229
3164 3162 3161 3161 3161 3160 3161 3161 3161 3163 3165 3166 3168 3169 3170 3171 3172 3174 3173 3174 3176 3178 3180 3182 3185 3186 3188 3190 3194 3197 3199 3202 3204 3207 3209 3211 3212 3214 3216 3218 3220 3222 3223 3224 3226 3228 3228 3228 3228
3164 3162 3162 3162 3161 3160 3160 3160 3160 3161 3162 3163 3165 3167 3168 3170 3172 3173 3174 3174 3176 3178 3181 3183 3184 3187 3190 3193 3195 3197 3200 3202 3205 3207 3209 3210 3212 3213 3215 3218 3220 3222 3222 3223 3225 3226 3227 3228 3227
3162 3161 3160 3162 3161 3161 3159 3158 3158 3158 3157 3159 3163 3164 3166 3168 3169 3173 3174 3174 3176 3178 3180 3182 3184 3187 3189 3192 3194 3196 3198 3202 3205 3207 3209 3210 3212 3213 3215 3216 3218 3220 3222 3223 3224 3225 3226 3227 3227
3159 3158 3158 3160 3160 3160 3159 3155 3154 3153 3153 3156 3158 3161 3163 3166 3169 3171 3173 3174 3176 3178 3179 3181 3184 3186 3189 3191 3195 3196 3197 3199 3203 3206 3208 3209 3211 3212 3214 3215 3216 3219 3221 3221 3223 3223 3224 3225 3227
3158 3159 3157 3156 3160 3159 3159 3154 3149 3150 3149 3150 3152 3156 3159 3163 3166 3169 3171 3173 3176 3178 3179 3181 3183 3184 3187 3189 3192 3195 3197 3198 3201 3205 3207 3208 3210 3211 3213 3214 3215 3217 3219 3220 3221 3221 3223 3224 3225
3159 3157 3156 3157 3159 3158 3157 3157 3147 3147 3146 3146 3148 3151 3155 3159 3163 3166 3169 3172 3175 3176 3179 3181 3182 3183 3184 3187 3190 3193 3195 3198 3200 3203 3205 3207 3209 3210 3211 3213 3214 3216 3217 3218 3218 3220 3221 3222 3224
3158 3158 3157 3158 3159 3158 3153 3155 3146 3145 3144 3144 3145 3147 3151 3156 3160 3162 3166 3169 3172 3174 3176 3178 3181 3183 3184 3186 3187 3190 3193 3195 3199 3201 3202 3204 3206 3209 3209 3210 3212 3213 3215 3215 3215 3218 3220 3221 3221
3156 3156 3159 3161 3160 3156 3152 3152 3145 3144 3143 3143 3143 3144 3146 3151 3155 3159 3162 3165 3169 3171 3173 3176 3179 3180 3182 3184 3186 3188 3190 3192 3195 3198 3200 3202 3204 3206 3207 3208 3209 3211 3212 3213 3213 3215 3217 3218 3218
3152 3153 3154 3160 3159 3152 3152 3148 3143 3142 3142 3141 3142 3141 3142 3146 3151 3155 3159 3163 3166 3168 3170 3173 3176 3178 3180 3181 3183 3184 3187 3188 3192 3194 3196 3199 3201 3203 3205 3207 3209 3209 3210 3211 3212 3212 3213 3215 3216
3149 3149 3151 3151 3152 3151 3150 3146 3142 3140 3139 3141 3141 3140 3141 3143 3147 3152 3156 3159 3162 3164 3167 3170 3173 3175 3177 3179 3180 3182 3184 3185 3188 3191 3193 3196 3198 3201 3203 3204 3206 3207 3208 3209 3210 3210 3210 3211 3214
3145 3146 3146 3147 3150 3152 3148 3145 3142 3141 3141 3141 3142 3141 3141 3143 3147 3151 3154 3157 3160 3161 3163 3166 3169 3172 3173 3175 3178 3180 3181 3184 3185 3187 3188 3192 3196 3198 3200 3203 3204 3204 3206 3207 3208 3208 3208 3209 3210
3140 3138 3139 3142 3143 3144 3148 3143 3143 3141 3142 3143 3143 3144 3144 3146 3148 3150 3152 3154 3155 3157 3160 3162 3166 3167 3170 3172 3175 3177 3179 3181 3183 3184 3185 3186 3189 3193 3196 3199 3200 3201 3202 3204 3204 3205 3206 3207 3208
3135 3135 3135 3136 3140 3140 3139 3140 3140 3141 3140 3141 3143 3144 3145 3146 3148 3149 3151 3151 3152 3153 3154 3157 3160 3162 3166 3169 3170 3173 3176 3177 3179 3181 3182 3183 3185 3187 3190 3193 3196 3198 3199 3200 3202 3202 3203 3205 3205